Regional Weather Roundup
Issued by NWS

Home | Current Version | Previous Version | Text Only | Print | Product List | Glossary Off
Versions: 1 2 3 4 5 6 7 8 9 10 11 12 13 14 15 16 17 18 19 20 21 22 23 24 25 26 27 28 29 30 31 32 33 34 35 36 37 38 39 40 41 42 43 44 45 46 47 48 49 50

000
ASUS43 KOAX 270902
RWRNE

WEATHER ROUNDUP FOR NEBRASKA
NATIONAL WEATHER SERVICE OMAHA NE
300 AM CST TUE JAN 27 2015

NOTES: SATELLITE DATA IS BEING USED TO AUGMENT CLOUD COVER ABOVE
       12000 FEET.
       "FAIR" INDICATES FEW OR NO CLOUDS BELOW 12,000 FEET WITH NO
       SIGNIFICANT WEATHER AND/OR OBSTRUCTIONS TO VISIBILITY.

  * THESE STATIONS DO NOT REPORT WEATHER SUCH AS RAIN...SNOW OR FOG.

NEZ001>004-019>022-054>056-271000-
NEBRASKA PANHANDLE

CITY           SKY/WX    TMP DP  RH WIND       PRES   REMARKS
SCOTTSBLUFF    PTCLDY    33  28  81 N7        30.09S WCI  27
ALLIANCE       CLEAR     32  27  81 W7        30.07S WCI  26
CHADRON        PTCLDY    34  27  75 SW8       30.04S WCI  27
SIDNEY         PTCLDY    31  25  78 NW6       30.11S WCI  25
$$

NEZ057>060-069>072-079>082-271000-
SOUTHWEST NEBRASKA

CITY           SKY/WX    TMP DP  RH WIND       PRES   REMARKS
NORTH PLATTE   CLEAR     26  23  88 NW6       30.07S WCI  19
IMPERIAL       PTCLDY    36  27  69 W7        30.09S WCI  30
LEXINGTON      CLEAR     29  26  88 W5        30.06S WCI  24
MCCOOK         CLEAR     34  29  82 W6        30.08S WCI  29
$$

NEZ005>010-023>029-035>040-094-271000-
NORTH CENTRAL NEBRASKA

CITY           SKY/WX    TMP DP  RH WIND       PRES   REMARKS
VALENTINE      CLEAR     29  27  92 SW7       30.01S WCI  22
BROKEN BOW     CLEAR     29  25  85 CALM      30.03F
ORD            CLEAR     27  24  89 CALM      30.05S
$$

NEZ041-046>049-061>064-073>077-083>087-271000-
SOUTH CENTRAL NEBRASKA

CITY           SKY/WX    TMP DP  RH WIND       PRES   REMARKS
GRAND ISLAND   CLEAR     27  24  89 E6        30.08S WCI  20
AURORA         CLEAR     30  28  90 CALM      30.08S
HASTINGS       CLEAR     32  26  78 CALM      30.06F
KEARNEY *      PTCLDY    34  27  75 CALM      30.06S
$$

NEZ011>018-030>034-042>045-271000-
NORTHEAST NEBRASKA

CITY           SKY/WX    TMP DP  RH WIND       PRES   REMARKS
NORFOLK        CLEAR     30  27  88 CALM      30.06S
ALBION         CLEAR     28  25  87 CALM      30.06F
BLAIR          CLEAR     38  32  81 N7        30.07R WCI  32
COLUMBUS *     CLEAR     25  16  68 CALM      30.09S
FREMONT        CLEAR     29  28  94 W5        30.08R WCI  24
TEKAMAH        CLEAR     29  27  92 CALM      30.08R
$$

NEZ050>053-065>068-078-088>093-271000-
SOUTHEAST NEBRASKA

CITY           SKY/WX    TMP DP  RH WIND       PRES   REMARKS
LINCOLN        CLEAR     24  20  84 N5        30.10R WCI  18
OMAHA EPPLEY   CLEAR     31  29  92 N5        30.08R WCI  26
FALLS CITY     CLEAR     32  27  81 NW6       30.08R WCI  26
$$

NEZ044-045-051>053-067-271000-
OMAHA AREA

CITY           SKY/WX    TMP DP  RH WIND       PRES   REMARKS
OMAHA EPPLEY   CLEAR     31  29  92 N5        30.08R WCI  26
BLAIR          CLEAR     38  32  81 N7        30.07R WCI  32
FREMONT        CLEAR     29  28  94 W5        30.08R WCI  24
OFFUTT AFB     CLEAR     27  26  95 CALM      30.07R
$$


USA.gov is the U.S. government's official web portal to all federal, state and local government web resources and services.